Retour au catalogue

COSMOS 1375 DEB

ActifLEO
NORAD 26498·DEBRIS·🇷🇺 Russia

Lancé Jun 6, 1982 depuis Plesetsk Cosmodrome

Loading…

Prochains Passages (prochaines 24 heures)

TLE

PériméSource: Space-Track

Époque: Aug 24, 2026, 04:24 UTC

1 26498U 82055BP  26236.18353810  .00001185  00000-0  78434-3 0  9991
2 26498  65.8130  77.6170 0016205 116.2106 244.0640 14.05262833671865

Suivez COSMOS 1375 DEB en temps réel avec AllMySat

Download on the App Store